|   |  | Asteroid 2014 NK52
					
					
					
					
						
					
					
						
							(Preview) 
						
							
								Orbital elements:
2014 NK52                                           PHA, Earth MOID = 0.0183 AU
Epoch 2014 May 23.0 TT = JDT 2456800.5                  MPC
M   6.19910              (2000.0)            P               Q
n   0.28680462     Peri.  267.86835     -0.96296690     -0.26602667
a   2.2772565      Node   256.70150     +0.26181294     -0.88375291
e   0.8474752      Incl.    2.58370     +0.06441073     -0.38498132
P   3.44           H   21.... | Blobrana | 0 |  |  | 
		
			
			
				
				
					|   |  | Asteroid 2014 NG3
					
					
					
					
						
					
					
						
							(Preview) 
						
							
								The 35 - 78 metre wide asteroid 2014 NG3 will make a close pass (23.1 lunar distances, 0.0594 AU), travelling at 6.52 km/second, to the Earth-Moon system on the 11th July 2014 @ 22:26 UT ±00:06.  See more The Lunar Distance (LD), the distance between Earth and the Moon, equals 384,401 km, (or 0.00256 AU... | Blobrana | 0 |  |  | 
		
			
			
				
				
					|   |  | Asteroid 2001 RV17
					
					
					
					
						
					
					
						
							(Preview) 
						
							
								The 240 - 540 metre wide asteroid 2001 RV17 will make a close pass (44.6 lunar distances, 0.1146 AU), travelling at 11.43 km/second, to the Earth-Moon system on the 11th July 2014 @ 13:22 UT ±00:01.  See more The Lunar Distance (LD), the distance between Earth and the Moon, equals 384,401 km, (or 0.002...  | Blobrana | 0 |  |  | 
		
			
			
				
				
					|   |  | Asteroid 2010 SH13
					
					
					
					
						
					
					
						
							(Preview) 
						
							
								Orbital elements:
2010 SH13                                           PHA, Earth MOID = 0.0438 AU
Epoch 2014 May 23.0 TT = JDT 2456800.5                  MPC
M  66.00472              (2000.0)            P               Q
n   0.74416083     Peri.   10.99776     -0.93072172     +0.36305624
a   1.2060302      Node   190.61438     -0.35109809     -0.92074785
e   0.1369246      Incl.   13.86092     -0.10240709     -0.14287607
P   1.32           H   21... | Blobrana | 0 |  |  | 
		
			
			
				
				
					|   |  | Asteroid 2014 NB52
					
					
					
					
						
					
					
						
							(Preview) 
						
							
								Orbital elements:
2014 NB52                                           PHA, Earth MOID = 0.0455 AU
Epoch 2014 May 23.0 TT = JDT 2456800.5                  MPC
M 267.92270              (2000.0)            P               Q
n   0.70584236     Peri.  115.51298     +0.74131696     -0.53466642
a   1.2492928      Node   279.39461     +0.36546099     +0.82856153
e   0.3718499      Incl.   24.28030     +0.56292756     +0.16618545
P   1.40           H... | Blobrana | 1 |  |  | 
		
			
			
				
				
					|   |  | Asteroid 2014 MF6
					
					
					
					
						
					
					
						
							(Preview) 
						
							
								Orbital elements:
2014 MF6                                            PHA, Earth MOID = 0.0223 AU
Epoch 2014 May 23.0 TT = JDT 2456800.5                  MPC
M 340.27492              (2000.0)            P               Q
n   0.25761125     Peri.  234.30160     +0.81170337     +0.57904708
a   2.4462049      Node    90.19480     -0.50814797     +0.76463876
e   0.6162062      Incl.    4.38363     -0.28796402     +0.28289936
P   3.83           H   20.... | Blobrana | 1 |  |  | 
		
			
			
				
				
					|   |  | Asteroid 2014 LX9
					
					
					
					
						
					
					
						
							(Preview) 
						
							
								The 53 - 120 metre wide asteroid 2014 LX9 will make a close pass (69.5 lunar distances, 0.1787 AU), travelling at 5.90 km/second, to the Earth-Moon system on the 9th July 2014 @ 19:30 UT ±00:28.  See more The Lunar Distance (LD), the distance between Earth and the Moon, equals 384,401 km, (or 0.00256 AU... | Blobrana | 0 |  |  | 
		
			
			
				
				
					|   |  | Asteroid 2006 VX2
					
					
					
					
						
					
					
						
							(Preview) 
						
							
								The 28 - 62 metre wide asteroid 2006 VX2 will make a close pass (60.4 lunar distances, 0.1553 AU), travelling at 9.28 km/second, to the Earth-Moon system on the 9th July 2014 @ 03:27 UT ±03:18.  See more The Lunar Distance (LD), the distance between Earth and the Moon, equals 384,401 km, (or 0.00256 AU)... | Blobrana | 0 |  |  | 
		
			
			
				
				
					|   |  | Asteroid 2014 MF19
					
					
					
					
						
					
					
						
							(Preview) 
						
							
								The 44 - 99 metre wide asteroid 2014 MF19 made a close pass (38.9 lunar distances, 0.0999 AU), travelling at 13.09 km/second, to the Earth-Moon system on the 8th July 2014 @ 03:05 UT ±00:01.  See more The Lunar Distance (LD), the distance between Earth and the Moon, equals 384,401 km, (or 0.00256 AU). | Blobrana | 0 |  |  | 
		
			
			
				
				
					|   |  | Asteroid 2014 MK60
					
					
					
					
						
					
					
						
							(Preview) 
						
							
								Orbital elements:
2014 MK60                                           PHA, Earth MOID = 0.0185 AU
Epoch 2014 May 23.0 TT = JDT 2456800.5                  MPC
M 186.06608              (2000.0)            P               Q
n   1.10316090     Peri.   51.54951     +0.67353217     -0.73907964
a   0.9276343      Node   356.05879     +0.62002670     +0.57284020
e   0.2297231      Incl.    9.00343     +0.40239447     +0.35442261
P   0.89           H   20... | Blobrana | 0 |  |  | 
		
			
			
				
				
					|   |  | Asteroid 2014 KF39
					
					
					
					
						
					
					
						
							(Preview) 
						
							
								The 27 - 59 metre wide asteroid 2014 KF39 will make a close pass (28.3 lunar distances, 0.0727 AU), travelling at 2.01 km/second, to the Earth-Moon system on the 6th July 2014 @ 01:45 UT ±00:04.  See more The Lunar Distance (LD), the distance between Earth and the Moon, equals 384,401 km, (or 0.00256 AU... | Blobrana | 0 |  |  | 
		
			
			
				
				
					|   |  | Asteroid (386) Siegena
					
					
					
					
						
					
					
						
							(Preview) 
						
							
								Very large main-belt asteroid (386) Siegena was discovered by Max Wolf on March 1, 1894, in Heidelberg. The asteroid has an average diameter of about 165.01 km. It has an orbit characterised by a semi-major axis equal to 2.8941017 AU and an eccentricity of 0.1729483, with an inclination with respec...       | Blobrana | 1 |  |  | 
		
			
			
				
				
					|   |  | Asteroid 2014 MO41
					
					
					
					
						
					
					
						
							(Preview) 
						
							
								The 59 - 130 metre wide asteroid 2014 MO41 will make a close pass (28.3 lunar distances, 0.0727 AU), travelling at 28.13 km/second, to the Earth-Moon system on the 5th July 2014 @ 09:27 UT ±00:01.  See more The Lunar Distance (LD), the distance between Earth and the Moon, equals 384,401 km, (or 0.00256...  | Blobrana | 0 |  |  | 
		
			
			
				
				
					|   |  | Asteroid 2014 MR41
					
					
					
					
						
					
					
						
							(Preview) 
						
							
								The 75 - 170 metre wide asteroid 2014 MR41 will make a close pass (37.6 lunar distances, 0.0967 AU), travelling at 14.72 km/second, to the Earth-Moon system on the 4th July 2014 @ 07:41 UT ±00:01.  See more The Lunar Distance (LD), the distance between Earth and the Moon, equals 384,401 km, (or 0.00256...  | Blobrana | 0 |  |  | 
		
			
			
				
				
					|   |  | Asteroid 2014 MJ26
					
					
					
					
						
					
					
						
							(Preview) 
						
							
								The 29 - 64 metre wide asteroid 2014 MJ26 will make a close pass (9.7 lunar distances, 0.0249 AU), travelling at 8.68 km/second, to the Earth-Moon system on the 2nd July 2014 @ 07:09 UT ±00:01.  See more The Lunar Distance (LD), the distance between Earth and the Moon, equals 384,401 km, (or 0.00256 AU)... | Blobrana | 0 |  |  |